Humboldt, Iowa, United States (50548)
Lat: 42.72N, Lon: 94.22W
Wx Zone: IAZ024
Local Info
Past Weather Observations for Monday, July 28, 2014

NOTE: This archive is for the closest National Weather Service station to Humboldt. Information may differ from the station used for current weather conditions.

Click here for Long-term Archive

Time Weather Temperature Dewpoint Humidity Pressure Winds Precip Visibility
23:55
Clear
57°F / 14°C 54°F / 12°C 88% 30.18 in
(1022 mb)
NNW 3.5 mph
(NNW 6 kph)
- 10SM
23:35
Clear
57°F / 14°C 54°F / 12°C 88% 30.18 in
(1022 mb)
NNW 4.6 mph
(NNW 7 kph)
- 10SM
23:15
Clear
57°F / 14°C 54°F / 12°C 88% 30.18 in
(1022 mb)
NW 3.5 mph
(NW 6 kph)
- 10SM
22:55
Clear
57°F / 14°C 54°F / 12°C 88% 30.18 in
(1022 mb)
NW 3.5 mph
(NW 6 kph)
- 10SM
22:35
Clear
57°F / 14°C 54°F / 12°C 88% 30.18 in
(1022 mb)
Calm - 10SM
22:15
Clear
57°F / 14°C 54°F / 12°C 88% 30.18 in
(1022 mb)
Calm - 10SM
21:55
Clear
57°F / 14°C 54°F / 12°C 88% 30.18 in
(1022 mb)
Calm - 10SM
21:35
Clear
57°F / 14°C 55°F / 13°C 94% 30.18 in
(1022 mb)
Calm - 10SM
21:15
Clear
59°F / 15°C 55°F / 13°C 88% 30.18 in
(1022 mb)
Calm - 10SM
20:55
Clear
59°F / 15°C 54°F / 12°C 82% 30.18 in
(1022 mb)
Calm - 2 1/2SM
20:35
Clear
63°F / 17°C 55°F / 13°C 77% 30.18 in
(1022 mb)
Calm - 10SM
20:15
Clear
63°F / 17°C 55°F / 13°C 77% 30.18 in
(1022 mb)
Calm - 10SM
19:55
Clear
64°F / 18°C 55°F / 13°C 73% 30.18 in
(1022 mb)
Calm - 10SM
19:35
Clear
66°F / 19°C 55°F / 13°C 68% 30.18 in
(1022 mb)
Calm - 10SM
19:15
Clear
68°F / 20°C 57°F / 14°C 69% 30.18 in
(1022 mb)
Calm - 10SM
18:55
Clear
70°F / 21°C 57°F / 14°C 64% 30.18 in
(1022 mb)
Calm - 10SM
18:35
Clear
70°F / 21°C 57°F / 14°C 64% 30.18 in
(1022 mb)
Calm - 10SM
18:15
Partly Cloudy
72°F / 22°C 55°F / 13°C 57% 30.18 in
(1022 mb)
NE 4.6 mph
(NE 7 kph)
- 10SM
17:55
Mostly Cloudy
72°F / 22°C 55°F / 13°C 57% 30.18 in
(1022 mb)
NE 5.8 mph
(NE 9 kph)
- 10SM
17:35
Overcast
68°F / 20°C 54°F / 12°C 60% 30.18 in
(1022 mb)
NE 5.8 mph
(NE 9 kph)
- 10SM
17:15
Mostly Cloudy
73°F / 23°C 55°F / 13°C 53% 30.18 in
(1022 mb)
NNE 8.1 mph
(NNE 13 kph)
- 10SM
16:55
Clear
73°F / 23°C 57°F / 14°C 57% 30.18 in
(1022 mb)
NNW 4.6 mph
(NNW 7 kph)
- 10SM
16:35
Partly Cloudy
73°F / 23°C 57°F / 14°C 57% 30.18 in
(1022 mb)
NNW 5.8 mph
(NNW 9 kph)
- 10SM
16:15
Mostly Cloudy
73°F / 23°C 57°F / 14°C 57% 30.18 in
(1022 mb)
NNW 4.6 mph
(NNW 7 kph)
- 10SM
15:55
Overcast
73°F / 23°C 57°F / 14°C 57% 30.21 in
(1023 mb)
N 5.8 mph
(N 9 kph)
- 10SM
15:35
Overcast
72°F / 22°C 57°F / 14°C 61% 30.21 in
(1023 mb)
N 8.1 mph
(N 13 kph)
- 10SM
15:15
Overcast
73°F / 23°C 57°F / 14°C 57% 30.21 in
(1023 mb)
NNW 5.8 mph
(NNW 9 kph)
- 10SM
14:55
Overcast
73°F / 23°C 59°F / 15°C 61% 30.21 in
(1023 mb)
N 4.6 mph
(N 7 kph)
- 10SM
14:35
Overcast
73°F / 23°C 59°F / 15°C 61% 30.21 in
(1023 mb)
NNW 5.8 mph
(NNW 9 kph)
- 10SM
14:15
Overcast
73°F / 23°C 59°F / 15°C 61% 30.21 in
(1023 mb)
NNW 6.9 mph
(NNW 11 kph)
- 10SM
13:55
Overcast
72°F / 22°C 59°F / 15°C 65% 30.21 in
(1023 mb)
N 6.9 mph
(N 11 kph)
- 10SM
13:35
Mostly Cloudy
72°F / 22°C 57°F / 14°C 61% 30.21 in
(1023 mb)
NW 3.5 mph
(NW 6 kph)
- 10SM
13:15
Mostly Cloudy
72°F / 22°C 57°F / 14°C 61% 30.21 in
(1023 mb)
NW 3.5 mph
(NW 6 kph)
- 10SM
12:55
Mostly Cloudy
70°F / 21°C 57°F / 14°C 64% 30.24 in
(1024 mb)
NW 4.6 mph
(NW 7 kph)
- 10SM
12:35
Overcast
68°F / 20°C 57°F / 14°C 69% 30.24 in
(1024 mb)
NW 3.5 mph
(NW 6 kph)
- 10SM
12:15
Overcast
70°F / 21°C 57°F / 14°C 64% 30.24 in
(1024 mb)
N 4.6 mph
(N 7 kph)
- 10SM
11:55
Overcast
70°F / 21°C 57°F / 14°C 64% 30.24 in
(1024 mb)
NE 8.1 mph
(NE 13 kph)
- 10SM
11:35
Mostly Cloudy
70°F / 21°C 57°F / 14°C 64% 30.24 in
(1024 mb)
NE 5.8 mph
(NE 9 kph)
- 10SM
11:15
Overcast
70°F / 21°C 57°F / 14°C 64% 30.24 in
(1024 mb)
N 4.6 mph
(N 7 kph)
- 10SM
10:55
Mostly Cloudy
70°F / 21°C 57°F / 14°C 64% 30.24 in
(1024 mb)
Calm - 10SM
10:35
Mostly Cloudy
70°F / 21°C 57°F / 14°C 64% 30.24 in
(1024 mb)
N 4.6 mph
(N 7 kph)
- 10SM
10:15
Partly Cloudy
70°F / 21°C 57°F / 14°C 64% 30.24 in
(1024 mb)
Calm - 10SM
09:55
Mostly Cloudy
68°F / 20°C 57°F / 14°C 69% 30.24 in
(1024 mb)
ENE 5.8 mph
(ENE 9 kph)
- 10SM
09:35
Mostly Cloudy
66°F / 19°C 57°F / 14°C 73% 30.24 in
(1024 mb)
Calm - 10SM
09:15
Mostly Cloudy
66°F / 19°C 57°F / 14°C 73% 30.24 in
(1024 mb)
NNE 3.5 mph
(NNE 6 kph)
- 10SM
08:55
Overcast
64°F / 18°C 57°F / 14°C 78% 30.24 in
(1024 mb)
Calm - 10SM
08:35
Overcast
64°F / 18°C 61°F / 16°C 88% 30.24 in
(1024 mb)
N 4.6 mph
(N 7 kph)
- 10SM
08:15
Mostly Cloudy
64°F / 18°C 61°F / 16°C 88% 30.24 in
(1024 mb)
NNE 5.8 mph
(NNE 9 kph)
- 10SM
07:55
Mostly Cloudy
64°F / 18°C 59°F / 15°C 83% 30.24 in
(1024 mb)
NE 5.8 mph
(NE 9 kph)
- 10SM
07:35
Overcast
63°F / 17°C 59°F / 15°C 88% 30.24 in
(1024 mb)
N 4.6 mph
(N 7 kph)
- 10SM
07:15
Partly Cloudy
61°F / 16°C 57°F / 14°C 88% 30.24 in
(1024 mb)
N 5.8 mph
(N 9 kph)
- 10SM
06:55
Mostly Cloudy
61°F / 16°C 57°F / 14°C 88% 30.21 in
(1023 mb)
N 5.8 mph
(N 9 kph)
- 10SM
06:35
Overcast
61°F / 16°C 57°F / 14°C 88% 30.21 in
(1023 mb)
N 5.8 mph
(N 9 kph)
- 10SM
06:15
Overcast
59°F / 15°C 57°F / 14°C 94% 30.21 in
(1023 mb)
NW 5.8 mph
(NW 9 kph)
- 10SM
05:55
Overcast
59°F / 15°C 57°F / 14°C 94% 30.21 in
(1023 mb)
N 4.6 mph
(N 7 kph)
- 10SM
05:35
Overcast
57°F / 14°C 55°F / 13°C 94% 30.21 in
(1023 mb)
NNW 3.5 mph
(NNW 6 kph)
- 10SM
05:15
Overcast
57°F / 14°C 55°F / 13°C 94% 30.21 in
(1023 mb)
NNW 4.6 mph
(NNW 7 kph)
- 10SM
04:55
Overcast
57°F / 14°C 55°F / 13°C 94% 30.21 in
(1023 mb)
NNW 5.8 mph
(NNW 9 kph)
- 10SM
04:35
Overcast
57°F / 14°C 55°F / 13°C 94% 30.18 in
(1022 mb)
NW 4.6 mph
(NW 7 kph)
- 10SM
04:15
Overcast
57°F / 14°C 55°F / 13°C 94% 30.18 in
(1022 mb)
NW 5.8 mph
(NW 9 kph)
- 10SM
03:55
Mostly Cloudy
57°F / 14°C 55°F / 13°C 94% 30.18 in
(1022 mb)
NW 3.5 mph
(NW 6 kph)
- 10SM
03:35
Partly Cloudy
57°F / 14°C 55°F / 13°C 94% 30.18 in
(1022 mb)
NW 4.6 mph
(NW 7 kph)
- 10SM
03:15
Clear
57°F / 14°C 55°F / 13°C 94% 30.18 in
(1022 mb)
NNW 6.9 mph
(NNW 11 kph)
- 10SM
02:55
Clear
59°F / 15°C 55°F / 13°C 88% 30.18 in
(1022 mb)
NNW 4.6 mph
(NNW 7 kph)
- 10SM
02:35
Partly Cloudy
59°F / 15°C 55°F / 13°C 88% 30.15 in
(1021 mb)
NNW 5.8 mph
(NNW 9 kph)
- 10SM
02:15
Partly Cloudy
61°F / 16°C 55°F / 13°C 83% 30.15 in
(1021 mb)
NNW 4.6 mph
(NNW 7 kph)
- 10SM
01:55
Mostly Cloudy
61°F / 16°C 55°F / 13°C 83% 30.15 in
(1021 mb)
N 4.6 mph
(N 7 kph)
- 10SM
01:35
Overcast
61°F / 16°C 57°F / 14°C 88% 30.15 in
(1021 mb)
NNW 6.9 mph
(NNW 11 kph)
- 10SM
01:15
Partly Cloudy
61°F / 16°C 55°F / 13°C 83% 30.15 in
(1021 mb)
NNW 4.6 mph
(NNW 7 kph)
- 10SM
00:55
Clear
61°F / 16°C 55°F / 13°C 83% 30.15 in
(1021 mb)
NNW 5.8 mph
(NNW 9 kph)
- 10SM
00:35
Clear
61°F / 16°C 57°F / 14°C 88% 30.15 in
(1021 mb)
NNW 4.6 mph
(NNW 7 kph)
- 10SM
00:15
Clear
61°F / 16°C 57°F / 14°C 88% 30.15 in
(1021 mb)
NW 3.5 mph
(NW 6 kph)
- 10SM
Time Weather Temperature Dewpoint Humidity Pressure Winds Precip Visibility


Weather for websites

WeatherForYou.com, LLC is not responsible for any damages or problems caused by this service. Current weather conditions are obtained from the closest station including government and personal stations which may have varying degrees of accuracy. Weather forecasts are derived from the NOAA NDFD. Like all things, this site belongs to Jesus Christ... He just trusts me to maintain it. If you have any questions or comments email webmaster@weatherforyou.com

Copyright © 2014, WeatherForYou.com LLC. All rights reserved.